Regional Weather Roundup
Issued by NWS

Home | Current Version | Previous Version | Text Only | Print | Product List | Glossary Off
Versions: 1 2 3 4 5 6 7 8 9 10 11 12 13 14 15 16 17 18 19 20 21 22 23 24 25 26 27 28 29 30 31 32 33 34 35 36 37 38 39 40 41 42 43 44 45 46 47 48 49 50

000
ASUS43 KMPX 311210
RWRMN
WEATHER ROUNDUP FOR MINNESOTA
NATIONAL WEATHER SERVICE TWIN CITIES/CHANHASSEN MN
700 AM CDT WED AUG 31 2016


NOTE: "FAIR" INDICATES FEW OR NO CLOUDS BELOW 12,000 FEET WITH NO
SIGNIFICANT WEATHER AND/OR OBSTRUCTIONS TO VISIBILITY. N/A MEANS
CURRENT SKY AND/OR WEATHER CONDITIONS ARE NOT AVAILABLE.

MNZ060>063-068>070-311300-
   Twin Cities Metro

CITY           SKY/WX    TMP DP  RH WIND       PRES   REMARKS
TWIN CITIES    PTCLDY    58  54  86 NW3       30.21R
6HR MIN TEMP:  58; 6HR MAX TEMP:  64;

ST PAUL        CLEAR     57  54  89 NW3       30.21R
CRYSTAL        CLEAR     54  51  90 CALM      30.20R
BLAINE         PTCLDY    55  55 100 CALM      30.21R
LAKEVILLE      CLEAR     55  55 100 W3        30.21R
EDEN PRAIRIE   CLEAR     57  54  89 N5        30.20R
6HR MIN TEMP:  57; 6HR MAX TEMP:  64;

LAKEVILLE      CLEAR     55  55 100 W3        30.21R
SOUTH ST PAUL  CLEAR     57  55  94 CALM      30.20R
LAKE ELMO      FAIR      52  52 100 CALM      30.21R
$$
MNZ001>005-007-008-013>017-022>024-027-028-311300-
   Northwest Minnesota

CITY           SKY/WX    TMP DP  RH WIND       PRES   REMARKS
BEMIDJI        CLEAR     43  42  95 CALM      30.26R
HALLOCK        CLEAR     50  46  87 NE5       30.27S
ROSEAU         CLEAR     48  45  87 CALM      30.27S
WARROAD        CLEAR     48  45  87 NW5       30.28R
THIEF RVR FALL CLEAR     53  48  83 NE5       30.27R
CROOKSTON      CLOUDY    54  52  94 CALM      30.27R
FOSSTON        CLEAR     48  46  93 N3        30.27R
DETROIT LAKES  CLEAR     55  54  94 CALM      30.26R
MOORHEAD       CLEAR     52  50  93 CALM      30.24R
MAHNOMEN       FAIR      51  50  98 CALM      30.25S
$$
MNZ006-009>011-018-025>026-311300-
   North Central Minnesota

CITY           SKY/WX    TMP DP  RH WIND       PRES   REMARKS
BAUDETTE       CLEAR     48  47  96 W3        30.25R
FLAG ISLAND    CLEAR     57  54  88 N3        30.25R FOG
INTL FALLS     CLEAR     45  43  93 NW5       30.24R
6HR MIN TEMP:  40; 6HR MAX TEMP:  48;

WASKISH        CLEAR     46  45  93 CALM      30.26R
BIG FORK       CLEAR     41  39  93 CALM      30.25R
LONGVILLE      CLEAR     48  46  93 CALM      30.24R
GRAND RAPIDS   FOG       49  49 100 CALM      30.26R VSB 1
CRANE LAKE     CLEAR     43  43 100 CALM      30.24S
ORR            CLEAR     46  45  93 CALM      30.21R
COOK           CLEAR     43  43 100 CALM      30.23S
WALKER         FAIR      49  49  99 CALM      30.25R
$$
MNZ012-019>021-037-311300-
   Northeast Minnesota

CITY           SKY/WX    TMP DP  RH WIND       PRES   REMARKS
DULUTH         PTCLDY    52  50  93 N6        30.22R
6HR MIN TEMP:  51; 6HR MAX TEMP:  57;

ELY            CLEAR     45  43  93 CALM      30.22R
HIBBING        CLEAR     43  42  97 CALM      30.23R
EVELETH        CLEAR     42  42  97 CALM      30.24R
DULUTH HARBOR  CLEAR     54  52  94 S3        30.21R
TWO HARBORS    CLEAR     55  52  88 NW3       30.19R
SILVER BAY     CLEAR     46  45  93 CALM      30.19R
GRAND MARAIS     N/A     61  53  75 N10G18    30.15R
G MARAIS ARPRT CLEAR     52  46  82 CALM      30.21R
$$
MNZ029>031-032-039>041-046>048-054>057-064-311300-
   West Central Minnesota

CITY           SKY/WX    TMP DP  RH WIND       PRES   REMARKS
FERGUS FALLS   CLEAR     57  57 100 CALM      30.26R
WHEATON        PTCLDY    54  54 100 CALM      30.26R
MORRIS         CLEAR     54  54 100 CALM      30.22S
ALEXANDRIA     CLEAR     56  54  93 CALM      30.25S
ELBOW LAKE     FAIR      60  55  81 CALM      30.24R
WADENA         CLEAR     48  48 100 W1        30.24S
GLENWOOD       CLEAR     57  55  94 CALM      30.24S
APPLETON       CLEAR     55  54  94 CALM      30.22S
BENSON         PTCLDY    52  50  93 CALM      30.23R
ORTONVILLE     PTCLDY    57  54  88 CALM      30.23R
MADISON        CLEAR     55  54  94 CALM      30.23R
WILLMAR        FAIR      57  54  88 CALM      30.24R
$$
MNZ033>034-036-042>043-049>051-058-059-311300-
   Central Minnesota

CITY           SKY/WX    TMP DP  RH WIND       PRES   REMARKS
ST CLOUD       CLEAR     52  52 100 CALM      30.22R
6HR MIN TEMP:  51; 6HR MAX TEMP:  57;

SAUK CENTRE    FAIR      51  51  99 CALM      30.24S
PAYNESVILLE      N/A     49  49 100 CALM      30.24R FOG
AITKIN         CLEAR     46  43  87 CALM      30.22S FOG
PINE RIVER     MOCLDY    48  48 100 CALM      30.27S
BRAINERD       MOCLDY    50  49  96 CALM      30.23F FOG
STAPLES        CLEAR     50  48  93 CALM      30.24S
LONG PRAIRIE   FAIR      52  52 100 CALM      30.24S
LITTLE FALLS   CLEAR     50  48  93 CALM      30.23S FOG
LITCHFIELD     LGT RAIN  57  55  94 CALM      30.23R
BUFFALO        CLEAR     55  52  89 CALM      30.23R
MAPLE LAKE     CLEAR     54  54  99 CALM      30.23R
HUTCHINSON     CLEAR     54  54  99 CALM      30.23R
$$
MNZ037-044-045-052-053-311300-
   East Central Minnesota

CITY           SKY/WX    TMP DP  RH WIND       PRES   REMARKS
PRINCETON      CLEAR     50  48  93 CALM      30.23R FOG
MORA           CLEAR     50  50 100 CALM      30.23S
CAMBRIDGE      CLEAR     52  46  82 CALM      30.20S
RUSH CITY      PTCLDY    49  48  97 CALM      30.21S
MOOSE LAKE     CLEAR     46  45  93 CALM      30.21R
HINCKLEY       FAIR      50  50 100 CALM      30.22S
CLOQUET        CLEAR     48  46  93 NW5       30.22R
MCGREGOR       MOCLDY    45  45 100 CALM      30.24R VSB 1/2
$$
MNZ071>073-080-081-089-090-097-098-311300-
   Southwest Minnesota

CITY           SKY/WX    TMP DP  RH WIND       PRES   REMARKS
MONTEVIDEO     CLEAR     55  52  88 CALM      30.24R
GRANITE FALLS  CLEAR     55  54  97 CALM      30.24R FOG
CANBY          CLEAR     55  53  95 CALM      30.24R
MARSHALL       CLEAR     54  53  97 CALM      30.24R
REDWOOD FALLS  CLEAR     57  54  89 CALM      30.22R
OLIVIA         CLEAR     55  54  94 CALM      30.22R
WINDOM         CLEAR     55  54  94 CALM      30.23R
WORTHINGTON    CLEAR     54  53  97 NW5       30.24S
JACKSON        CLEAR     54  52  94 NW3       30.23S FOG
TRACY          CLEAR     58  56  92 CALM      30.24R
SLAYTON        CLEAR     54  52  94 CALM      30.25S
$$
MNZ065>067-074>077-082>085-091>093-311300-
   South Central Minnesota

CITY           SKY/WX    TMP DP  RH WIND       PRES   REMARKS
NEW ULM        CLEAR     52  52 100 CALM      30.22R
ST JAMES       CLEAR     54  54 100 CALM      30.23R
GLENCOE        CLEAR     56  56 100 CALM      30.21R
FARIBAULT      CLEAR     52  52 100 CALM      30.21R
OWATONNA       FOG       52  48  87 CALM      30.21R VSB 1/4
WASECA         CLEAR     52  50  93 CALM      30.22R
ALBERT LEA     CLEAR     54  54 100 CALM      30.20R
$$
MNZ078>079-086>088-094>096-311300-
   Southeast Minnesota

CITY           SKY/WX    TMP DP  RH WIND       PRES   REMARKS
ROCHESTER      CLEAR     56  55  97 NW7       30.20R
6HR MIN TEMP:  56; 6HR MAX TEMP:  59;

RED WING       PTCLDY    54  54 100 CALM      30.19R
STANTON        PTCLDY    52  50  93 CALM      30.19R
DODGE CENTER   CLEAR     54  52  94 N3        30.20R
WINONA         CLOUDY    55  55 100 NW3       30.18R FOG
AUSTIN         CLEAR     54  52  94 CALM      30.19R
PRESTON        CLEAR     55  52  92 N3        30.19S
$$
ABBREVIATIONS USED IN REMARKS
   TC - TEMPERATURES IN CELSIUS
  WCI - WIND CHILL INDEX
   HX - HEAT INDEX
  VSB - VISIBILITY
$$




USA.gov is the U.S. government's official web portal to all federal, state and local government web resources and services.